Weather History for Las Vegas, NM

Change the Weather History Date:

Wednesday, February 26, 2014

  Actual Average Record
Temperature  
Mean Temperature 37 °F -  
Max Temperature 60 °F 50 °F 72 °F (1986)
Min Temperature 14 °F 23 °F 5 °F (1977)
Degree Days  
Heating Degree Days 28    
Moisture  
Dew Point 15 °F    
Average Humidity 66    
Maximum Humidity 100    
Minimum Humidity 13    
Precipitation  
Precipitation 0.00 in - - ()
Sea Level Pressure  
Sea Level Pressure 30.02 in    
Wind  
Wind Speed 11 mph (SSW)    
Max Wind Speed 20 mph    
Max Gust Speed 28 mph    
Visibility 7 miles    
Events Fog    
Averages and records for this station are not official NWS values.
T = Trace of Precipitation, MM = Missing Value Source: NWS Daily Summary

Daily Weather History Graph

Daily Weather History Graph

Search for Another Location

Airport:

Trip Planner

Search our weather history database for the weather conditions in past years. The results will help you decide how hot, cold, wet, or windy it might be!

Date:

Astronomy

Feb. 26, 2014 Rise Set
Actual Time 6:34 AM MST 5:53 PM MST
Civil Twilight 6:08 AM MST 6:18 PM MST
Nautical Twilight 5:38 AM MST 6:48 PM MST
Astronomical Twilight 5:09 AM MST 7:18 PM MST
Moon 4:18 AM MST (2/26) 3:14 PM MST (2/26)
Length of Visible Light 12h 10m
Length of Day
11h 18m
Waning Crescent, 9% of the Moon is Illuminated
Feb 26
Waning Crescent
Mar 1
New
Mar 8
First Quarter
Mar 16
Full
Mar 23
Last Quarter

Hourly Weather History & Observations

Time (MST) Temp. Windchill Dew Point Humidity Pressure Visibility Wind Dir Wind Speed Gust Speed Precip Events Conditions
12:53 AM 21.0 °F 13.4 °F 17.1 °F 85% 30.04 in 8.0 mi ENE 5.8 mph - N/A   Overcast
1:53 AM 19.9 °F 14.9 °F 17.1 °F 89% 30.02 in 6.0 mi East 3.5 mph - N/A   Overcast
2:53 AM 19.9 °F 8.6 °F 14.0 °F 78% 30.02 in 10.0 mi South 10.4 mph - N/A   Overcast
3:32 AM 18.0 °F 5.4 °F 12.0 °F 78% 30.11 in 10.0 mi South 11.5 mph - N/A   Overcast
3:53 AM 18.0 °F 7.7 °F 12.0 °F 78% 30.01 in 10.0 mi South 8.1 mph - N/A   Overcast
4:21 AM 16.0 °F 1.1 °F 10.9 °F 81% 30.11 in 10.0 mi SSW 15.0 mph - N/A   Overcast
4:53 AM 15.1 °F 0.5 °F 10.9 °F 84% 30.04 in 9.0 mi SSW 13.8 mph - N/A   Overcast
5:35 AM 14.0 °F -2.0 °F 12.9 °F 95% 30.10 in 3.0 mi SSW 16.1 mph - N/A   Overcast
5:53 AM 15.1 °F 0.5 °F 12.9 °F 91% 30.05 in 2.5 mi South 13.8 mph - N/A   Overcast
6:10 AM 15.1 °F -2.0 °F 12.9 °F 91% 30.09 in 3.0 mi SSW 19.6 mph - N/A   Overcast
6:53 AM 16.0 °F 0.6 °F 12.9 °F 88% 30.05 in 2.5 mi SSW 16.1 mph - N/A   Overcast
7:23 AM 16.0 °F 1.1 °F 15.1 °F 96% 30.09 in 1.0 mi SSW 15.0 mph - N/A   Overcast
7:30 AM 16.0 °F 0.6 °F 15.1 °F 96% 30.10 in 0.5 mi SSW 16.1 mph - N/A Fog Light Freezing Fog
7:51 AM 15.8 °F 0.9 °F 15.8 °F 100% 30.10 in 0.2 mi SSW 15.0 mph - N/A Fog Light Freezing Fog
7:53 AM 17.1 °F 2.0 °F 15.1 °F 92% 30.06 in 0.2 mi SSW 16.1 mph - N/A Fog Light Freezing Fog
8:25 AM 17.1 °F 3.0 °F 16.0 °F 96% 30.09 in 0.5 mi SSW 13.8 mph - N/A Fog Light Freezing Fog
8:42 AM 19.0 °F 6.1 °F 17.1 °F 92% 30.09 in 1.2 mi SSW 12.7 mph - N/A   Overcast
8:53 AM 19.0 °F 6.8 °F 17.1 °F 92% 30.11 in 2.5 mi SSW 11.5 mph - N/A   Overcast
9:00 AM 19.0 °F 5.6 °F 17.1 °F 92% 30.08 in 3.0 mi SSW 13.8 mph - N/A   Overcast
9:34 AM 21.9 °F 10.4 °F 18.0 °F 85% 30.07 in 10.0 mi SSW 11.5 mph - N/A   Mostly Cloudy
9:46 AM 25.0 °F 15.5 °F 18.0 °F 75% 30.07 in 10.0 mi SSW 9.2 mph - N/A   Scattered Clouds
9:53 AM 26.1 °F 16.8 °F 18.0 °F 71% 30.11 in 10.0 mi SW 9.2 mph - N/A   Partly Cloudy
10:53 AM 36.0 °F 27.5 °F 19.9 °F 52% 30.04 in 10.0 mi SSW 12.7 mph - N/A   Clear
11:53 AM 46.0 °F 40.6 °F 19.9 °F 35% 29.96 in 10.0 mi South 11.5 mph - N/A   Clear
12:53 PM 54.0 °F - 19.0 °F 25% 29.88 in 10.0 mi South 12.7 mph - N/A   Clear
1:53 PM 55.9 °F - 14.0 °F 19% 29.84 in 10.0 mi WSW 4.6 mph - N/A   Clear
2:53 PM 60.1 °F - 9.0 °F 13% 29.81 in 10.0 mi NNW 16.1 mph 25.3 mph N/A   Partly Cloudy
3:03 PM 60.1 °F - 9.0 °F 13% 29.92 in 10.0 mi NW 17.3 mph 27.6 mph N/A   Partly Cloudy
3:53 PM 59.0 °F - 9.0 °F 14% 29.82 in 10.0 mi NNW 16.1 mph - N/A   Clear
4:53 PM 57.0 °F - 9.0 °F 15% 29.85 in 10.0 mi NNW 16.1 mph - N/A   Clear
5:53 PM 48.0 °F - 10.9 °F 22% 29.93 in 10.0 mi NNE 18.4 mph 24.2 mph N/A   Clear
6:17 PM 39.9 °F 31.4 °F 17.1 °F 40% 29.98 in 10.0 mi ENE 16.1 mph 25.3 mph N/A   Clear
6:53 PM 34.0 °F 24.2 °F 18.0 °F 52% 30.05 in 10.0 mi East 15.0 mph - N/A   Clear
7:53 PM 30.0 °F 20.0 °F 16.0 °F 56% 30.09 in 10.0 mi North 12.7 mph 18.4 mph N/A   Clear
8:53 PM 28.9 °F 22.8 °F 16.0 °F 58% 30.11 in 10.0 mi North 5.8 mph - N/A   Clear
9:53 PM 30.0 °F 24.1 °F 16.0 °F 56% 30.07 in 10.0 mi NNE 5.8 mph - N/A   Clear
10:53 PM 30.9 °F 26.2 °F 17.1 °F 57% 30.01 in 10.0 mi NW 4.6 mph - N/A   Clear
11:53 PM 28.9 °F 22.8 °F 14.0 °F 54% 29.94 in 10.0 mi NW 5.8 mph - N/A   Clear